Weather History for KNSE - October, 2012

Change the Weather History Date:

Wednesday, October 24, 2012

  Actual Average Record
Temperature  
Mean Temperature 70 °F -  
Max Temperature 88 °F 76 °F 88 °F (2012)
Min Temperature 57 °F 56 °F 39 °F (1996)
Cooling Degree Days 4    
Growing Degree Days 20 (Base 50)    
Moisture  
Dew Point 59 °F    
Average Humidity 73    
Maximum Humidity 96    
Minimum Humidity 42    
Precipitation  
Precipitation 0.00 in - - ()
Sea Level Pressure  
Sea Level Pressure 30.02 in    
Wind  
Wind Speed 3 mph (NE)    
Max Wind Speed 9 mph    
Max Gust Speed -    
Visibility 10 miles    
Events      
Averages and records for this station are not official NWS values.
T = Trace of Precipitation, MM = Missing Value Source: NWS Daily Summary

Daily Weather History Graph

Daily Weather History Graph

Search for Another Location

Airport or City:

Trip Planner

Search our weather history database for the weather conditions in past years. The results will help you decide how hot, cold, wet, or windy it might be!

Date:

Astronomy

Oct. 24, 2012 Rise Set
Actual Time 6:57 AM CDT 6:06 PM CDT
Civil Twilight 6:32 AM CDT 6:31 PM CDT
Nautical Twilight 6:04 AM CDT 6:59 PM CDT
Astronomical Twilight 5:36 AM CDT 7:27 PM CDT
Moon 3:05 PM CDT (10/24) 2:11 AM CDT (10/24)
Length of Visible Light 11h 58m
Length of Day
11h 09m
Waxing Gibbous, 76% of the Moon is Illuminated
Oct 24
Waxing Gibbous
Oct 29
Full
Nov 6
Last Quarter
Nov 13
New
Nov 20
First Quarter

Hourly Weather History & Observations

Time (CDT) Temp. Heat Index Dew Point Humidity Pressure Visibility Wind Dir Wind Speed Gust Speed Precip Events Conditions
12:56 AM 59.0 °F - 57.9 °F 96% 30.03 in 9.0 mi Calm Calm - N/A   Clear
1:56 AM 57.9 °F - 55.9 °F 93% 30.02 in 10.0 mi North 3.5 mph - N/A   Clear
2:56 AM 59.0 °F - 57.0 °F 93% 30.01 in 10.0 mi North 5.8 mph - N/A   Clear
3:56 AM 59.0 °F - 57.0 °F 93% 30.02 in 10.0 mi North 3.5 mph - N/A   Clear
4:56 AM 60.1 °F - 57.0 °F 90% 30.04 in 10.0 mi Calm Calm - N/A   Clear
5:56 AM 59.0 °F - 55.4 °F 88% 30.06 in 10.0 mi NNE 3.5 mph - N/A   Clear
6:56 AM 59.0 °F - 57.0 °F 93% 30.07 in 8.0 mi Calm Calm - N/A   Partly Cloudy
7:56 AM 64.0 °F - 59.0 °F 84% 30.08 in 10.0 mi NE 3.5 mph - N/A   Partly Cloudy
8:56 AM 68.0 °F - 61.0 °F 78% 30.08 in 10.0 mi ENE 9.2 mph - N/A   Partly Cloudy
9:56 AM 73.4 °F - 62.1 °F 68% 30.08 in 10.0 mi ENE 6.9 mph - N/A   Partly Cloudy
10:56 AM 78.1 °F - 62.1 °F 58% 30.07 in 10.0 mi East 5.8 mph - N/A   Partly Cloudy
11:56 AM 81.0 °F 81.3 °F 59.0 °F 47% 30.06 in 10.0 mi ENE 5.8 mph - N/A   Scattered Clouds
12:56 PM 82.9 °F 82.8 °F 59.0 °F 44% 30.02 in 10.0 mi East 5.8 mph - N/A   Scattered Clouds
1:56 PM 82.0 °F 82.0 °F 57.9 °F 44% 30.00 in 9.0 mi ENE 8.1 mph - N/A   Scattered Clouds
2:56 PM 82.9 °F 82.6 °F 57.9 °F 42% 29.98 in 10.0 mi ENE 3.5 mph - N/A   Scattered Clouds
3:56 PM 82.9 °F 82.6 °F 57.9 °F 42% 29.98 in 10.0 mi Variable 4.6 mph - N/A   Scattered Clouds
4:56 PM 81.0 °F 81.0 °F 57.0 °F 44% 29.97 in 10.0 mi ENE 5.8 mph - N/A   Scattered Clouds
5:56 PM 73.9 °F - 61.0 °F 64% 29.98 in 10.0 mi NE 4.6 mph - N/A   Partly Cloudy
6:56 PM 75.0 °F - 61.0 °F 62% 29.99 in 10.0 mi Calm Calm - N/A   Partly Cloudy
7:56 PM 70.0 °F - 61.0 °F 73% 30.00 in 10.0 mi Calm Calm - N/A   Partly Cloudy
8:56 PM 64.0 °F - 60.1 °F 87% 30.00 in 10.0 mi Calm Calm - N/A   Clear
9:56 PM 61.0 °F - 59.0 °F 93% 30.00 in 10.0 mi Calm Calm - N/A   Clear
10:56 PM 60.1 °F - 59.0 °F 96% 29.99 in 10.0 mi Calm Calm - N/A   Clear
11:56 PM 59.0 °F - 55.4 °F 88% 29.99 in 10.0 mi North 3.5 mph - N/A   Clear